Volver al catálogo

BELINTERSAT 1

ActivoComunicacionesGEO
NORAD 41238·PAYLOAD·🇧🇾 Belarus

Lanzado Jan 15, 2016 desde Xichang Satellite Launch Center

Loading…

TLE

ActualizadoSource: Space-Track

Época: Sep 14, 2026, 14:02 UTC

1 41238U 16001A   26257.58532772  .00000099  00000-0  00000-0 0  9995
2 41238   0.0249  83.4511 0000681  19.2798 153.0749  1.00273352 39136

Sigue BELINTERSAT 1 en tiempo real con AllMySat

Download on the App Store